CZ-6A DEB, 60703

Orbit data source: Space-Track

CZ-6A DEB, 60703 is space debris in LEO originally from a launch on Tue, 06 Aug 2024 UTC launched from the Taiyaun Space Center, China (TSC). Debris objects in space refer to the collection of defunct objects orbiting the Earth. Examples of debris include non-operational satellites, rocket bodies, and fragments generated from explosions, collisions, or faulty payload assembly.

Loading next visibility...
Identifier
60703, 2024-140DG
Orbit
LEO
Country
Flag of CNCN / PRC
Related business
Manufacturer
SAST
Mission
Spacecraft
Bus & Motor
Unknown
Mass
Unknown
Launch date (UTC)
2024-08-06 (2 years ago)
Launch vehicle
Unknown
Launch site
Taiyaun Space Center, China (TSC)
Object type
Payload
Rocket body
Debris
Shape & HBR
Unknown shape, 0.1 m
Radar Cross Section
Small (<0.1 m²)

Expand to show TLE details & history
Last TLE update: 9 hours ago

TLE from 9 hours ago
0 CZ-6A DEB
1 60703U 24140DG  26118.78455341  .00001680  00000-0  64087-3 0  9995
2 60703  89.4096 310.1999 0107819 240.5358 118.5046 14.27310776 88996
Epoch: 2026-04-28T18:49Z
TLE epoch observation values (Epoch: 2026-04-28T18:49:45.414Z)
Latitude
-0.00003°
Longitude
171.00578°
Altitude
841.385 km
Speed
7.413 km/s
True Right ascension
20h 40m 47s
True Declination
0° 00' 00"
Sunlit
Object was in daylight at epoch
Visualization orbit readout
Latitude
Unknown
Longitude
Unknown
Altitude
Unknown
Speed
Unknown
Apparent Right ascension
Unknown
Apparent Declination
Unknown
Sunlit
N/A
Visualization observer readout
Local Sidereal Time
11:00:06
Azimuth
Unknown
Elevation
Unknown
Doppler factor
Unknown
Orbital elements
Apogee altitude
875.041 km
Perigee altitude
720.303 km
Semi-major axis
7,175.809 km
Eccentricity
0.01078
Inclination
89.4096°
RAAN
310.1999°
Arg. of periapsis
240.5358°
True anomaly
119.58334°
Mean anomaly
118.5046°
Eccentric anomaly
119.04467°
Mean motion
3.57056 °/min
Orbital period
100.82 mins
BSTAR
0.00064087
Loading maneuver chart data...
Computing Atmospheric mass density...
Loading historical data...
Loading historical data...
Loading historical data...
Loading historical data...
Loading historical data...
Loading historical data...
Loading historical data...

Documentation

Showing up to 5 results
|